Weather History for St. George, AK

Change the Weather History Date:

Tuesday, February 5, 2013

  Actual Average Record
Temperature  
Mean Temperature 18 °F -  
Max Temperature 21 °F 28 °F 41 °F (2014)
Min Temperature 14 °F 21 °F 6 °F (1999)
Degree Days  
Heating Degree Days 48    
Moisture  
Dew Point 12 °F    
Average Humidity 76    
Maximum Humidity 81    
Minimum Humidity 71    
Precipitation  
Precipitation 0.00 in - - ()
Sea Level Pressure  
Sea Level Pressure 29.68 in    
Wind  
Wind Speed 9 mph (NNW)    
Max Wind Speed 16 mph    
Max Gust Speed -    
Visibility 8 miles    
Events Snow    
Averages and records for this station are not official NWS values.
T = Trace of Precipitation, MM = Missing Value Source: NWS Daily Summary

Daily Weather History Graph

Daily Weather History Graph

Search for Another Location

Airport:

Trip Planner

Search our weather history database for the weather conditions in past years. The results will help you decide how hot, cold, wet, or windy it might be!

Date:

Astronomy

Feb. 05, 2013 Rise Set
Actual Time 10:06 AM AKST 6:59 PM AKST
Civil Twilight 9:25 AM AKST 7:40 PM AKST
Nautical Twilight 8:40 AM AKST 8:25 PM AKST
Astronomical Twilight 7:56 AM AKST 9:09 PM AKST
Moon 6:27 AM AKST (2/5) 2:05 PM AKST (2/5)
Length of Visible Light 10h 15m
Length of Day
8h 53m
Waning Crescent, 25% of the Moon is Illuminated
Feb 5
Waning Crescent
Feb 9
New
Feb 17
First Quarter
Feb 25
Full
Mar 4
Last Quarter

Hourly Weather History & Observations

Time (AKST) Temp. Windchill Dew Point Humidity Pressure Visibility Wind Dir Wind Speed Gust Speed Precip Events Conditions
12:53 AM 14.0 °F 3.9 °F 9.0 °F 80% 29.62 in 6.0 mi North 6.9 mph - 0.00 in Snow Light Snow
1:46 AM 14.0 °F 0.5 °F 8.6 °F 79% 29.65 in 2.5 mi NW 11.5 mph - 0.00 in Snow Light Snow
1:53 AM 15.1 °F 1.8 °F 10.0 °F 80% 29.63 in 3.0 mi NNW 11.5 mph - 0.00 in Snow Light Snow
2:15 AM 15.8 °F 3.4 °F 10.4 °F 79% 29.66 in 5.0 mi NNW 10.4 mph - 0.00 in Snow Light Snow
3:53 AM 15.1 °F 3.3 °F 10.0 °F 80% 29.65 in 6.0 mi North 9.2 mph - 0.00 in Snow Light Snow
4:53 AM 16.0 °F 3.6 °F 10.0 °F 77% 29.65 in 10.0 mi NNW 10.4 mph - 0.00 in   Unknown
5:53 AM 17.1 °F 5.0 °F 10.9 °F 77% 29.65 in 10.0 mi NNW 10.4 mph - N/A   Unknown
6:53 AM 17.1 °F 5.8 °F 10.9 °F 77% 29.65 in 9.0 mi North 9.2 mph - 0.00 in   Unknown
7:53 AM 18.0 °F 5.4 °F 12.0 °F 78% 29.66 in 6.0 mi NW 11.5 mph - 0.00 in Snow Light Snow
8:53 AM 18.0 °F 4.8 °F 10.0 °F 71% 29.68 in 10.0 mi WNW 12.7 mph - 0.00 in   Unknown
9:53 AM 19.0 °F 8.2 °F 10.9 °F 71% 29.70 in 10.0 mi WNW 9.2 mph - 0.00 in   Unknown
10:53 AM 19.0 °F 7.5 °F 10.9 °F 71% 29.70 in 8.0 mi WNW 10.4 mph - 0.00 in Snow Light Snow
11:53 AM 19.0 °F 5.0 °F 12.0 °F 74% 29.72 in 9.0 mi NW 15.0 mph - 0.00 in   Unknown
12:53 PM 19.0 °F 10.0 °F 14.0 °F 81% 29.72 in 7.0 mi NW 6.9 mph - 0.00 in Snow Light Snow
1:53 PM 19.9 °F 5.7 °F 12.9 °F 74% 29.71 in 10.0 mi NW 16.1 mph - 0.00 in   Unknown
2:53 PM 21.0 °F 8.6 °F 14.0 °F 74% 29.71 in 10.0 mi NW 12.7 mph - 0.00 in   Unknown
3:53 PM 19.9 °F 11.1 °F 14.0 °F 78% 29.71 in 7.0 mi NW 6.9 mph - 0.00 in Snow Light Snow
4:53 PM 21.0 °F 11.4 °F 14.0 °F 74% 29.71 in 10.0 mi WNW 8.1 mph - 0.00 in   Unknown
5:53 PM 21.0 °F 11.4 °F 12.9 °F 71% 29.71 in 9.0 mi NNW 8.1 mph - 0.00 in   Unknown
6:53 PM 21.0 °F 13.4 °F 12.9 °F 71% 29.71 in 10.0 mi NNW 5.8 mph - N/A   Unknown
7:53 PM 19.9 °F - 12.9 °F 74% 29.71 in 10.0 mi Calm Calm - N/A   Unknown
8:53 PM 19.9 °F 14.9 °F 12.9 °F 74% 29.71 in 10.0 mi NE 3.5 mph - N/A   Overcast
9:53 PM 19.9 °F 11.1 °F 14.0 °F 78% 29.70 in 10.0 mi ENE 6.9 mph - N/A   Overcast
10:53 PM 19.0 °F 11.1 °F 14.0 °F 81% 29.68 in 10.0 mi ENE 5.8 mph - N/A   Overcast
11:53 PM 19.0 °F 10.0 °F 14.0 °F 81% 29.68 in 10.0 mi ENE 6.9 mph - N/A   Overcast